Year,Month,Day,Hour,Minute,Value (Times are PST for temperature in C)
2014,04,26,00,00,6.90
2014,04,26,00,01,6.90
2014,04,26,00,02,6.90
2014,04,26,00,03,6.90
2014,04,26,00,04,6.90
2014,04,26,00,05,6.90
2014,04,26,00,06,6.90
2014,04,26,00,07,6.90
2014,04,26,00,08,6.90
2014,04,26,00,09,6.90
2014,04,26,00,10,6.90
2014,04,26,00,11,6.90
2014,04,26,00,12,6.90
2014,04,26,00,13,6.90
2014,04,26,00,14,6.90
2014,04,26,00,15,6.90
2014,04,26,00,16,6.90
2014,04,26,00,17,6.90
2014,04,26,00,18,6.90
2014,04,26,00,19,6.90
2014,04,26,00,20,6.90
2014,04,26,00,21,6.90
2014,04,26,00,22,6.90
2014,04,26,00,23,6.80
2014,04,26,00,24,6.80
2014,04,26,00,25,6.80
2014,04,26,00,26,6.80
2014,04,26,00,27,6.80
2014,04,26,00,28,6.80
2014,04,26,00,29,6.80
2014,04,26,00,30,6.80
2014,04,26,00,31,6.80
2014,04,26,00,32,6.80
2014,04,26,00,33,6.80
2014,04,26,00,34,6.80
2014,04,26,00,35,6.80
2014,04,26,00,36,6.80
2014,04,26,00,37,6.80
2014,04,26,00,38,6.80
2014,04,26,00,39,6.70
2014,04,26,00,40,6.70
2014,04,26,00,41,6.70
2014,04,26,00,42,6.70
2014,04,26,00,43,6.70
2014,04,26,00,44,6.70
2014,04,26,00,45,6.70
2014,04,26,00,46,6.70
2014,04,26,00,47,6.70
2014,04,26,00,48,6.70
2014,04,26,00,49,6.70
2014,04,26,00,50,6.70
2014,04,26,00,51,6.70
2014,04,26,00,52,6.70
2014,04,26,00,53,6.70
2014,04,26,00,54,6.70
2014,04,26,00,55,6.60
2014,04,26,00,56,6.60
2014,04,26,00,57,6.60
2014,04,26,00,58,6.60
2014,04,26,00,59,6.60
2014,04,26,01,00,6.50
2014,04,26,01,01,6.50
2014,04,26,01,02,6.50
2014,04,26,01,03,6.50
2014,04,26,01,04,6.50
2014,04,26,01,05,6.50
2014,04,26,01,06,6.50
2014,04,26,01,07,6.50
2014,04,26,01,08,6.40
2014,04,26,01,09,6.40
2014,04,26,01,10,6.40
2014,04,26,01,11,6.40
2014,04,26,01,12,6.40
2014,04,26,01,13,6.40
2014,04,26,01,14,6.40
2014,04,26,01,15,6.40
2014,04,26,01,16,6.40
2014,04,26,01,17,6.40
2014,04,26,01,18,6.30
2014,04,26,01,19,6.30
2014,04,26,01,20,6.30
2014,04,26,01,21,6.30
2014,04,26,01,22,6.30
2014,04,26,01,23,6.30
2014,04,26,01,24,6.30
2014,04,26,01,25,6.30
2014,04,26,01,26,6.30
2014,04,26,01,27,6.30
2014,04,26,01,28,6.30
2014,04,26,01,29,6.30
2014,04,26,01,30,6.40
2014,04,26,01,31,6.40
2014,04,26,01,32,6.40
2014,04,26,01,33,6.40
2014,04,26,01,34,6.40
2014,04,26,01,35,6.40
2014,04,26,01,36,6.30
2014,04,26,01,37,6.30
2014,04,26,01,38,6.30
2014,04,26,01,39,6.30
2014,04,26,01,40,6.30
2014,04,26,01,41,6.20
2014,04,26,01,42,6.20
2014,04,26,01,43,6.20
2014,04,26,01,44,6.20
2014,04,26,01,45,6.10
2014,04,26,01,46,6.10
2014,04,26,01,47,6.10
2014,04,26,01,48,6.10
2014,04,26,01,49,6.10
2014,04,26,01,50,6.00
2014,04,26,01,51,6.00
2014,04,26,01,52,5.90
2014,04,26,01,53,5.90
2014,04,26,01,54,5.90
2014,04,26,01,55,5.80
2014,04,26,01,56,5.80
2014,04,26,01,57,5.80
2014,04,26,01,58,5.70
2014,04,26,01,59,5.70
2014,04,26,02,00,5.60
2014,04,26,02,01,5.60
2014,04,26,02,02,5.60
2014,04,26,02,03,5.50
2014,04,26,02,04,5.50
2014,04,26,02,05,5.40
2014,04,26,02,06,5.40
2014,04,26,02,07,5.40
2014,04,26,02,08,5.40
2014,04,26,02,09,5.40
2014,04,26,02,10,5.30
2014,04,26,02,11,5.30
2014,04,26,02,12,5.30
2014,04,26,02,13,5.30
2014,04,26,02,14,5.30
2014,04,26,02,15,5.20
2014,04,26,02,16,5.20
2014,04,26,02,17,5.20
2014,04,26,02,18,5.10
2014,04,26,02,19,5.10
2014,04,26,02,20,5.10
2014,04,26,02,21,5.10
2014,04,26,02,22,5.10
2014,04,26,02,23,5.10
2014,04,26,02,24,5.10
2014,04,26,02,25,5.10
2014,04,26,02,26,5.10
2014,04,26,02,27,5.00
2014,04,26,02,28,5.00
2014,04,26,02,29,5.00
2014,04,26,02,30,5.00
2014,04,26,02,31,4.90
2014,04,26,02,32,4.90
2014,04,26,02,33,4.90
2014,04,26,02,34,4.90
2014,04,26,02,35,4.90
2014,04,26,02,36,4.80
2014,04,26,02,37,4.80
2014,04,26,02,38,4.80
2014,04,26,02,39,4.80
2014,04,26,02,40,4.80
2014,04,26,02,41,4.80
2014,04,26,02,42,4.80
2014,04,26,02,43,4.70
2014,04,26,02,44,4.70
2014,04,26,02,45,4.70
2014,04,26,02,46,4.70
2014,04,26,02,47,4.70
2014,04,26,02,48,4.60
2014,04,26,02,49,4.60
2014,04,26,02,50,4.50
2014,04,26,02,51,4.50
2014,04,26,02,52,4.50
2014,04,26,02,53,4.40
2014,04,26,02,54,4.40
2014,04,26,02,55,4.40
2014,04,26,02,56,4.30
2014,04,26,02,57,4.30
2014,04,26,02,58,4.30
2014,04,26,02,59,4.30
2014,04,26,03,00,4.30
2014,04,26,03,01,4.20
2014,04,26,03,02,4.20
2014,04,26,03,03,4.20
2014,04,26,03,04,4.20
2014,04,26,03,05,4.20
2014,04,26,03,06,4.10
2014,04,26,03,07,4.10
2014,04,26,03,08,4.10
2014,04,26,03,09,4.10
2014,04,26,03,10,4.00
2014,04,26,03,11,4.00
2014,04,26,03,12,4.00
2014,04,26,03,13,3.90
2014,04,26,03,14,3.90
2014,04,26,03,15,3.90
2014,04,26,03,16,3.90
2014,04,26,03,17,3.80
2014,04,26,03,18,3.80
2014,04,26,03,19,3.80
2014,04,26,03,20,3.80
2014,04,26,03,21,3.80
2014,04,26,03,22,3.80
2014,04,26,03,23,3.80
2014,04,26,03,24,3.80
2014,04,26,03,25,3.80
2014,04,26,03,26,3.80
2014,04,26,03,27,3.80
2014,04,26,03,28,3.80
2014,04,26,03,29,3.80
2014,04,26,03,30,3.80
2014,04,26,03,31,3.80
2014,04,26,03,32,3.80
2014,04,26,03,33,3.80
2014,04,26,03,34,3.80
2014,04,26,03,35,3.80
2014,04,26,03,36,3.80
2014,04,26,03,37,3.80
2014,04,26,03,38,3.80
2014,04,26,03,39,3.70
2014,04,26,03,40,3.70
2014,04,26,03,41,3.70
2014,04,26,03,42,3.70
2014,04,26,03,43,3.70
2014,04,26,03,44,3.70
2014,04,26,03,45,3.70
2014,04,26,03,46,3.70
2014,04,26,03,47,3.60
2014,04,26,03,48,3.60
2014,04,26,03,49,3.60
2014,04,26,03,50,3.60
2014,04,26,03,51,3.60
2014,04,26,03,52,3.60
2014,04,26,03,53,3.50
2014,04,26,03,54,3.50
2014,04,26,03,55,3.50
2014,04,26,03,56,3.50
2014,04,26,03,57,3.60
2014,04,26,03,58,3.60
2014,04,26,03,59,3.70
2014,04,26,04,00,3.70
2014,04,26,04,01,3.80
2014,04,26,04,02,3.90
2014,04,26,04,03,4.00
2014,04,26,04,04,4.00
2014,04,26,04,05,4.10
2014,04,26,04,06,4.20
2014,04,26,04,07,4.20
2014,04,26,04,08,4.30
2014,04,26,04,09,4.40
2014,04,26,04,10,4.40
2014,04,26,04,11,4.50
2014,04,26,04,12,4.50
2014,04,26,04,13,4.60
2014,04,26,04,14,4.70
2014,04,26,04,15,4.70
2014,04,26,04,16,4.70
2014,04,26,04,17,4.70
2014,04,26,04,18,4.70
2014,04,26,04,19,4.70
2014,04,26,04,20,4.70
2014,04,26,04,21,4.70
2014,04,26,04,22,4.60
2014,04,26,04,23,4.60
2014,04,26,04,24,4.60
2014,04,26,04,25,4.60
2014,04,26,04,26,4.60
2014,04,26,04,27,4.60
2014,04,26,04,28,4.60
2014,04,26,04,29,4.60
2014,04,26,04,30,4.60
2014,04,26,04,31,4.60
2014,04,26,04,32,4.70
2014,04,26,04,33,4.70
2014,04,26,04,34,4.70
2014,04,26,04,35,4.70
2014,04,26,04,36,4.70
2014,04,26,04,37,4.70
2014,04,26,04,38,4.70
2014,04,26,04,39,4.70
2014,04,26,04,40,4.70
2014,04,26,04,41,4.70
2014,04,26,04,42,4.70
2014,04,26,04,43,4.60
2014,04,26,04,44,4.60
2014,04,26,04,45,4.60
2014,04,26,04,46,4.60
2014,04,26,04,47,4.60
2014,04,26,04,48,4.60
2014,04,26,04,49,4.60
2014,04,26,04,50,4.60
2014,04,26,04,51,4.60
2014,04,26,04,52,4.60
2014,04,26,04,53,4.60
2014,04,26,04,54,4.60
2014,04,26,04,55,4.60
2014,04,26,04,56,4.60
2014,04,26,04,57,4.60
2014,04,26,04,58,4.70
2014,04,26,04,59,4.70
2014,04,26,05,00,4.70
2014,04,26,05,01,4.80
2014,04,26,05,02,4.80
2014,04,26,05,03,4.80
2014,04,26,05,04,4.80
2014,04,26,05,05,4.80
2014,04,26,05,06,4.80
2014,04,26,05,07,4.80
2014,04,26,05,08,4.90
2014,04,26,05,09,4.90
2014,04,26,05,10,5.00
2014,04,26,05,11,5.00
2014,04,26,05,12,5.00
2014,04,26,05,13,5.00
2014,04,26,05,14,5.00
2014,04,26,05,15,5.00
2014,04,26,05,16,5.00
2014,04,26,05,17,5.10
2014,04,26,05,18,5.10
2014,04,26,05,19,5.20
2014,04,26,05,20,5.20
2014,04,26,05,21,5.30
2014,04,26,05,22,5.30
2014,04,26,05,23,5.30
2014,04,26,05,24,5.30
2014,04,26,05,25,5.40
2014,04,26,05,26,5.50
2014,04,26,05,27,5.50
2014,04,26,05,28,5.60
2014,04,26,05,29,5.60
2014,04,26,05,30,5.70
2014,04,26,05,31,5.70
2014,04,26,05,32,5.70
2014,04,26,05,33,5.70
2014,04,26,05,34,5.70
2014,04,26,05,35,5.70
2014,04,26,05,36,5.70
2014,04,26,05,37,5.70
2014,04,26,05,38,5.70
2014,04,26,05,39,5.80
2014,04,26,05,40,5.80
2014,04,26,05,41,5.80
2014,04,26,05,42,5.80
2014,04,26,05,43,5.80
2014,04,26,05,44,5.90
2014,04,26,05,45,5.90
2014,04,26,05,46,5.90
2014,04,26,05,47,6.00
2014,04,26,05,48,6.00
2014,04,26,05,49,6.00
2014,04,26,05,50,6.00
2014,04,26,05,51,6.10
2014,04,26,05,52,6.10
2014,04,26,05,53,6.10
2014,04,26,05,54,6.10
2014,04,26,05,55,6.10
2014,04,26,05,56,6.10
2014,04,26,05,57,6.00
2014,04,26,05,58,5.90
2014,04,26,05,59,5.90
2014,04,26,06,00,5.90
2014,04,26,06,01,5.80
2014,04,26,06,02,5.80
2014,04,26,06,03,5.80
2014,04,26,06,04,5.70
2014,04,26,06,05,5.60
2014,04,26,06,06,5.60
2014,04,26,06,07,5.50
2014,04,26,06,08,5.50
2014,04,26,06,09,5.40
2014,04,26,06,10,5.30
2014,04,26,06,11,5.30
2014,04,26,06,12,5.30
2014,04,26,06,13,5.20
2014,04,26,06,14,5.20
2014,04,26,06,15,5.20
2014,04,26,06,16,5.10
2014,04,26,06,17,5.10
2014,04,26,06,18,5.10
2014,04,26,06,19,5.10
2014,04,26,06,20,5.10
2014,04,26,06,21,5.10
2014,04,26,06,22,5.00
2014,04,26,06,23,5.00
2014,04,26,06,24,5.00
2014,04,26,06,25,5.00
2014,04,26,06,26,5.00
2014,04,26,06,27,5.00
2014,04,26,06,28,5.00
2014,04,26,06,29,5.00
2014,04,26,06,30,5.00
2014,04,26,06,31,5.00
2014,04,26,06,32,5.00
2014,04,26,06,33,5.00
2014,04,26,06,34,5.10
2014,04,26,06,35,5.10
2014,04,26,06,36,5.10
2014,04,26,06,37,5.10
2014,04,26,06,38,5.10
2014,04,26,06,39,5.10
2014,04,26,06,40,5.10
2014,04,26,06,41,5.10
2014,04,26,06,42,5.10
2014,04,26,06,43,5.10
2014,04,26,06,44,5.10
2014,04,26,06,45,5.10
2014,04,26,06,46,5.10
2014,04,26,06,47,5.10
2014,04,26,06,48,5.20
2014,04,26,06,49,5.20
2014,04,26,06,50,5.20
2014,04,26,06,51,5.20
2014,04,26,06,52,5.30
2014,04,26,06,53,5.30
2014,04,26,06,54,5.30
2014,04,26,06,55,5.30
2014,04,26,06,56,5.40
2014,04,26,06,57,5.40
2014,04,26,06,58,5.40
2014,04,26,06,59,5.40
2014,04,26,07,00,5.40
2014,04,26,07,01,5.40
2014,04,26,07,02,5.40
2014,04,26,07,03,5.40
2014,04,26,07,04,5.30
2014,04,26,07,05,5.30
2014,04,26,07,06,5.30
2014,04,26,07,07,5.30
2014,04,26,07,08,5.40
2014,04,26,07,09,5.50
2014,04,26,07,10,5.50
2014,04,26,07,11,5.60
2014,04,26,07,12,5.70
2014,04,26,07,13,5.80
2014,04,26,07,14,5.90
2014,04,26,07,15,6.00
2014,04,26,07,16,6.10
2014,04,26,07,17,6.20
2014,04,26,07,18,6.20
2014,04,26,07,19,6.30
2014,04,26,07,20,6.40
2014,04,26,07,21,6.40
2014,04,26,07,22,6.50
2014,04,26,07,23,6.50
2014,04,26,07,24,6.60
2014,04,26,07,25,6.70
2014,04,26,07,26,6.80
2014,04,26,07,27,6.80
2014,04,26,07,28,6.80
2014,04,26,07,29,6.90
2014,04,26,07,30,7.00
2014,04,26,07,31,7.00
2014,04,26,07,32,7.10
2014,04,26,07,33,7.10
2014,04,26,07,34,7.20
2014,04,26,07,35,7.20
2014,04,26,07,36,7.30
2014,04,26,07,37,7.30
2014,04,26,07,38,7.30
2014,04,26,07,39,7.40
2014,04,26,07,40,7.40
2014,04,26,07,41,7.50
2014,04,26,07,42,7.50
2014,04,26,07,43,7.50
2014,04,26,07,44,7.60
2014,04,26,07,45,7.60
2014,04,26,07,46,7.60
2014,04,26,07,47,7.70
2014,04,26,07,48,7.70
2014,04,26,07,49,7.70
2014,04,26,07,50,7.70
2014,04,26,07,51,7.80
2014,04,26,07,52,7.80
2014,04,26,07,53,7.80
2014,04,26,07,54,7.80
2014,04,26,07,55,7.80
2014,04,26,07,56,7.80
2014,04,26,07,57,7.90
2014,04,26,07,58,7.90
2014,04,26,07,59,8.00
2014,04,26,08,00,8.00
2014,04,26,08,01,8.00
2014,04,26,08,02,8.10
2014,04,26,08,03,8.10
2014,04,26,08,04,8.10
2014,04,26,08,05,8.10
2014,04,26,08,06,8.10
2014,04,26,08,07,8.20
2014,04,26,08,08,8.20
2014,04,26,08,09,8.20
2014,04,26,08,10,8.30
2014,04,26,08,11,8.30
2014,04,26,08,12,8.30
2014,04,26,08,13,8.40
2014,04,26,08,14,8.40
2014,04,26,08,15,8.40
2014,04,26,08,16,8.40
2014,04,26,08,17,8.50
2014,04,26,08,18,8.50
2014,04,26,08,19,8.50
2014,04,26,08,20,8.50
2014,04,26,08,21,8.50
2014,04,26,08,22,8.60
2014,04,26,08,23,8.60
2014,04,26,08,24,8.60
2014,04,26,08,25,8.60
2014,04,26,08,26,8.60
2014,04,26,08,27,8.70
2014,04,26,08,28,8.70
2014,04,26,08,29,8.80
2014,04,26,08,30,8.90
2014,04,26,08,31,8.90
2014,04,26,08,32,8.90
2014,04,26,08,33,8.90
2014,04,26,08,34,8.90
2014,04,26,08,35,8.90
2014,04,26,08,36,8.90
2014,04,26,08,37,8.90
2014,04,26,08,38,8.90
2014,04,26,08,39,8.90
2014,04,26,08,40,8.90
2014,04,26,08,41,9.00
2014,04,26,08,42,9.00
2014,04,26,08,43,9.10
2014,04,26,08,44,9.10
2014,04,26,08,45,9.10
2014,04,26,08,46,9.10
2014,04,26,08,47,9.00
2014,04,26,08,48,8.90
2014,04,26,08,49,8.80
2014,04,26,08,50,8.60
2014,04,26,08,51,8.50
2014,04,26,08,52,8.50
2014,04,26,08,53,8.40
2014,04,26,08,54,8.40
2014,04,26,08,55,8.40
2014,04,26,08,56,8.50
2014,04,26,08,57,8.50
2014,04,26,08,58,8.50
2014,04,26,08,59,8.60
2014,04,26,09,00,8.60
2014,04,26,09,01,8.60
2014,04,26,09,02,8.60
2014,04,26,09,03,8.60
2014,04,26,09,04,8.60
2014,04,26,09,05,8.60
2014,04,26,09,06,8.60
2014,04,26,09,07,8.60
2014,04,26,09,08,8.60
2014,04,26,09,09,8.60
2014,04,26,09,10,8.60
2014,04,26,09,11,8.60
2014,04,26,09,12,8.60
2014,04,26,09,13,8.60
2014,04,26,09,14,8.60
2014,04,26,09,15,8.60
2014,04,26,09,16,8.70
2014,04,26,09,17,8.60
2014,04,26,09,18,8.60
2014,04,26,09,19,8.70
2014,04,26,09,20,8.70
2014,04,26,09,21,8.70
2014,04,26,09,22,8.70
2014,04,26,09,23,8.70
2014,04,26,09,24,8.70
2014,04,26,09,25,8.70
2014,04,26,09,26,8.70
2014,04,26,09,27,8.70
2014,04,26,09,28,8.70
2014,04,26,09,29,8.70
2014,04,26,09,30,8.70
2014,04,26,09,31,8.70
2014,04,26,09,32,8.70
2014,04,26,09,33,8.80
2014,04,26,09,34,8.80
2014,04,26,09,35,8.80
2014,04,26,09,36,8.80
2014,04,26,09,37,8.80
2014,04,26,09,38,8.80
2014,04,26,09,39,8.90
2014,04,26,09,40,8.90
2014,04,26,09,41,8.90
2014,04,26,09,42,8.80
2014,04,26,09,43,8.80
2014,04,26,09,44,8.80
2014,04,26,09,45,8.80
2014,04,26,09,46,8.80
2014,04,26,09,47,8.80
2014,04,26,09,48,8.80
2014,04,26,09,49,8.80
2014,04,26,09,50,8.90
2014,04,26,09,51,8.90
2014,04,26,09,52,9.00
2014,04,26,09,53,8.90
2014,04,26,09,54,8.90
2014,04,26,09,55,9.00
2014,04,26,09,56,9.10
2014,04,26,09,57,9.10
2014,04,26,09,58,9.10
2014,04,26,09,59,9.10
2014,04,26,10,00,9.10
2014,04,26,10,01,9.00
2014,04,26,10,02,9.00
2014,04,26,10,03,9.00
2014,04,26,10,04,8.90
2014,04,26,10,05,9.00
2014,04,26,10,06,9.00
2014,04,26,10,07,8.90
2014,04,26,10,08,8.90
2014,04,26,10,09,8.90
2014,04,26,10,10,8.90
2014,04,26,10,11,8.90
2014,04,26,10,12,8.90
2014,04,26,10,13,9.00
2014,04,26,10,14,9.00
2014,04,26,10,15,9.00
2014,04,26,10,16,9.00
2014,04,26,10,17,9.00
2014,04,26,10,18,8.90
2014,04,26,10,19,8.90
2014,04,26,10,20,8.80
2014,04,26,10,21,8.80
2014,04,26,10,22,8.90
2014,04,26,10,23,8.90
2014,04,26,10,24,8.90
2014,04,26,10,25,8.90
2014,04,26,10,26,8.80
2014,04,26,10,27,8.90
2014,04,26,10,28,8.80
2014,04,26,10,29,8.80
2014,04,26,10,30,8.80
2014,04,26,10,31,8.70
2014,04,26,10,32,8.70
2014,04,26,10,33,8.80
2014,04,26,10,34,8.80
2014,04,26,10,35,8.80
2014,04,26,10,36,8.80
2014,04,26,10,37,8.90
2014,04,26,10,38,8.90
2014,04,26,10,39,9.00
2014,04,26,10,40,9.10
2014,04,26,10,41,9.00
2014,04,26,10,42,9.00
2014,04,26,10,43,9.00
2014,04,26,10,44,8.90
2014,04,26,10,45,9.00
2014,04,26,10,46,9.00
2014,04,26,10,47,9.10
2014,04,26,10,48,9.20
2014,04,26,10,49,9.30
2014,04,26,10,50,9.20
2014,04,26,10,51,9.20
2014,04,26,10,52,9.10
2014,04,26,10,53,9.10
2014,04,26,10,54,9.20
2014,04,26,10,55,9.20
2014,04,26,10,56,9.20
2014,04,26,10,57,9.20
2014,04,26,10,58,9.20
2014,04,26,10,59,9.20
2014,04,26,11,00,9.30
2014,04,26,11,01,9.30
2014,04,26,11,02,9.20
2014,04,26,11,03,9.20
2014,04,26,11,04,9.20
2014,04,26,11,05,9.20
2014,04,26,11,06,9.20
2014,04,26,11,07,9.20
2014,04,26,11,08,9.30
2014,04,26,11,09,9.30
2014,04,26,11,10,9.30
2014,04,26,11,11,9.30
2014,04,26,11,12,9.30
2014,04,26,11,13,9.30
2014,04,26,11,14,9.30
2014,04,26,11,15,9.30
2014,04,26,11,16,9.40
2014,04,26,11,17,9.50
2014,04,26,11,18,9.60
2014,04,26,11,19,9.60
2014,04,26,11,20,9.60
2014,04,26,11,21,9.60
2014,04,26,11,22,9.50
2014,04,26,11,23,9.50
2014,04,26,11,24,9.50
2014,04,26,11,25,9.50
2014,04,26,11,26,9.40
2014,04,26,11,27,9.40
2014,04,26,11,28,9.40
2014,04,26,11,29,9.50
2014,04,26,11,30,9.50
2014,04,26,11,31,9.40
2014,04,26,11,32,9.50
2014,04,26,11,33,9.40
2014,04,26,11,34,9.40
2014,04,26,11,35,9.40
2014,04,26,11,36,9.40
2014,04,26,11,37,9.30
2014,04,26,11,38,9.20
2014,04,26,11,39,9.20
2014,04,26,11,40,9.20
2014,04,26,11,41,9.30
2014,04,26,11,42,9.30
2014,04,26,11,43,9.40
2014,04,26,11,44,9.50
2014,04,26,11,45,9.50
2014,04,26,11,46,9.50
2014,04,26,11,47,9.50
2014,04,26,11,48,9.50
2014,04,26,11,49,9.50
2014,04,26,11,50,9.40
2014,04,26,11,51,9.30
2014,04,26,11,52,9.20
2014,04,26,11,53,9.20
2014,04,26,11,54,9.20
2014,04,26,11,55,9.20
2014,04,26,11,56,9.30
2014,04,26,11,57,9.30
2014,04,26,11,58,9.30
2014,04,26,11,59,9.20
2014,04,26,12,00,9.20
2014,04,26,12,01,9.20
2014,04,26,12,02,9.10
2014,04,26,12,03,9.10
2014,04,26,12,04,9.20
2014,04,26,12,05,9.10
2014,04,26,12,06,9.10
2014,04,26,12,07,9.10
2014,04,26,12,08,9.10
2014,04,26,12,09,9.10
2014,04,26,12,10,9.10
2014,04,26,12,11,9.00
2014,04,26,12,12,8.90
2014,04,26,12,13,8.90
2014,04,26,12,14,9.00
2014,04,26,12,15,8.90
2014,04,26,12,16,8.90
2014,04,26,12,17,9.00
2014,04,26,12,18,9.10
2014,04,26,12,19,9.10
2014,04,26,12,20,9.20
2014,04,26,12,21,9.30
2014,04,26,12,22,9.20
2014,04,26,12,23,9.20
2014,04,26,12,24,9.20
2014,04,26,12,25,9.10
2014,04,26,12,26,9.10
2014,04,26,12,27,9.20
2014,04,26,12,28,9.20
2014,04,26,12,29,9.20
2014,04,26,12,30,9.20
2014,04,26,12,31,9.20
2014,04,26,12,32,9.30
2014,04,26,12,33,9.30
2014,04,26,12,34,9.30
2014,04,26,12,35,9.40
2014,04,26,12,36,9.30
2014,04,26,12,37,9.30
2014,04,26,12,38,9.30
2014,04,26,12,39,9.30
2014,04,26,12,40,9.30
2014,04,26,12,41,9.30
2014,04,26,12,42,9.40
2014,04,26,12,43,9.50
2014,04,26,12,44,9.60
2014,04,26,12,45,9.70
2014,04,26,12,46,9.80
2014,04,26,12,47,9.80
2014,04,26,12,48,9.80
2014,04,26,12,49,9.70
2014,04,26,12,50,9.50
2014,04,26,12,51,9.40
2014,04,26,12,52,9.30
2014,04,26,12,53,9.30
2014,04,26,12,54,9.30
2014,04,26,12,55,9.40
2014,04,26,12,56,9.40
2014,04,26,12,57,9.30
2014,04,26,12,58,9.20
2014,04,26,12,59,9.20
2014,04,26,13,00,9.30
2014,04,26,13,01,9.30
2014,04,26,13,02,9.40
2014,04,26,13,03,9.40
2014,04,26,13,04,9.40
2014,04,26,13,05,9.40
2014,04,26,13,06,9.30
2014,04,26,13,07,9.40
2014,04,26,13,08,9.40
2014,04,26,13,09,9.40
2014,04,26,13,10,9.40
2014,04,26,13,11,9.40
2014,04,26,13,12,9.30
2014,04,26,13,13,9.30
2014,04,26,13,14,9.30
2014,04,26,13,15,9.30
2014,04,26,13,16,9.30
2014,04,26,13,17,9.20
2014,04,26,13,18,9.20
2014,04,26,13,19,9.20
2014,04,26,13,20,9.30
2014,04,26,13,21,9.40
2014,04,26,13,22,9.30
2014,04,26,13,23,9.30
2014,04,26,13,24,9.30
2014,04,26,13,25,9.30
2014,04,26,13,26,9.30
2014,04,26,13,27,9.30
2014,04,26,13,28,9.40
2014,04,26,13,29,9.40
2014,04,26,13,30,9.40
2014,04,26,13,31,9.40
2014,04,26,13,32,9.50
2014,04,26,13,33,9.50
2014,04,26,13,34,9.50
2014,04,26,13,35,9.40
2014,04,26,13,36,9.50
2014,04,26,13,37,9.50
2014,04,26,13,38,9.60
2014,04,26,13,39,9.60
2014,04,26,13,40,9.60
2014,04,26,13,41,9.60
2014,04,26,13,42,9.70
2014,04,26,13,43,9.70
2014,04,26,13,44,9.70
2014,04,26,13,45,9.60
2014,04,26,13,46,9.60
2014,04,26,13,47,9.60
2014,04,26,13,48,9.60
2014,04,26,13,49,9.60
2014,04,26,13,50,9.60
2014,04,26,13,51,9.60
2014,04,26,13,52,9.70
2014,04,26,13,53,9.70
2014,04,26,13,54,9.70
2014,04,26,13,55,9.80
2014,04,26,13,56,9.80
2014,04,26,13,57,9.90
2014,04,26,13,58,10.00
2014,04,26,13,59,10.00
2014,04,26,14,00,10.10
2014,04,26,14,01,10.10
2014,04,26,14,02,10.10
2014,04,26,14,03,10.10
2014,04,26,14,04,10.20
2014,04,26,14,05,10.10
2014,04,26,14,06,10.10
2014,04,26,14,07,10.20
2014,04,26,14,08,10.10
2014,04,26,14,09,10.10
2014,04,26,14,10,10.20
2014,04,26,14,11,10.20
2014,04,26,14,12,10.20
2014,04,26,14,13,10.30
2014,04,26,14,14,10.30
2014,04,26,14,15,10.30
2014,04,26,14,16,10.30
2014,04,26,14,17,10.30
2014,04,26,14,18,10.40
2014,04,26,14,19,10.50
2014,04,26,14,20,10.50
2014,04,26,14,21,10.60
2014,04,26,14,22,10.70
2014,04,26,14,23,10.80
2014,04,26,14,24,10.80
2014,04,26,14,25,10.90
2014,04,26,14,26,10.90
2014,04,26,14,27,10.90
2014,04,26,14,28,10.90
2014,04,26,14,29,10.90
2014,04,26,14,30,10.90
2014,04,26,14,31,10.80
2014,04,26,14,32,10.70
2014,04,26,14,33,10.60
2014,04,26,14,34,10.50
2014,04,26,14,35,10.50
2014,04,26,14,36,10.50
2014,04,26,14,37,10.50
2014,04,26,14,38,10.50
2014,04,26,14,39,10.50
2014,04,26,14,40,10.50
2014,04,26,14,41,10.60
2014,04,26,14,42,10.70
2014,04,26,14,43,10.80
2014,04,26,14,44,10.90
2014,04,26,14,45,10.90
2014,04,26,14,46,11.00
2014,04,26,14,47,11.00
2014,04,26,14,48,11.00
2014,04,26,14,49,10.90
2014,04,26,14,50,10.90
2014,04,26,14,51,10.90
2014,04,26,14,52,10.90
2014,04,26,14,53,11.00
2014,04,26,14,54,11.00
2014,04,26,14,55,11.00
2014,04,26,14,56,11.00
2014,04,26,14,57,11.00
2014,04,26,14,58,11.10
2014,04,26,14,59,11.20
2014,04,26,15,00,11.20
2014,04,26,15,01,11.20
2014,04,26,15,02,11.20
2014,04,26,15,03,11.20
2014,04,26,15,04,11.20
2014,04,26,15,05,11.20
2014,04,26,15,06,11.30
2014,04,26,15,07,11.30
2014,04,26,15,08,11.40
2014,04,26,15,09,11.50
2014,04,26,15,10,11.50
2014,04,26,15,11,11.60
2014,04,26,15,12,11.60
2014,04,26,15,13,11.60
2014,04,26,15,14,11.70
2014,04,26,15,15,11.60
2014,04,26,15,16,11.60
2014,04,26,15,17,11.60
2014,04,26,15,18,11.60
2014,04,26,15,19,11.60
2014,04,26,15,20,11.60
2014,04,26,15,21,11.60
2014,04,26,15,22,11.60
2014,04,26,15,23,11.60
2014,04,26,15,24,11.70
2014,04,26,15,25,11.80
2014,04,26,15,26,11.90
2014,04,26,15,27,12.00
2014,04,26,15,28,12.00
2014,04,26,15,29,12.00
2014,04,26,15,30,12.00
2014,04,26,15,31,11.90
2014,04,26,15,32,11.90
2014,04,26,15,33,11.90
2014,04,26,15,34,11.90
2014,04,26,15,35,12.00
2014,04,26,15,36,12.10
2014,04,26,15,37,12.10
2014,04,26,15,38,12.10
2014,04,26,15,39,12.10
2014,04,26,15,40,12.10
2014,04,26,15,41,12.10
2014,04,26,15,42,12.10
2014,04,26,15,43,12.10
2014,04,26,15,44,12.10
2014,04,26,15,45,12.10
2014,04,26,15,46,12.20
2014,04,26,15,47,12.20
2014,04,26,15,48,12.30
2014,04,26,15,49,12.40
2014,04,26,15,50,12.50
2014,04,26,15,51,12.60
2014,04,26,15,52,12.50
2014,04,26,15,53,12.50
2014,04,26,15,54,12.50
2014,04,26,15,55,12.50
2014,04,26,15,56,12.50
2014,04,26,15,57,12.50
2014,04,26,15,58,12.40
2014,04,26,15,59,12.30
2014,04,26,16,00,12.20
2014,04,26,16,01,12.10
2014,04,26,16,02,12.10
2014,04,26,16,03,12.10
2014,04,26,16,04,12.20
2014,04,26,16,05,12.30
2014,04,26,16,06,12.30
2014,04,26,16,07,12.30
2014,04,26,16,08,12.20
2014,04,26,16,09,12.10
2014,04,26,16,10,12.10
2014,04,26,16,11,12.00
2014,04,26,16,12,11.90
2014,04,26,16,13,11.90
2014,04,26,16,14,11.90
2014,04,26,16,15,12.00
2014,04,26,16,16,12.00
2014,04,26,16,17,12.00
2014,04,26,16,18,12.00
2014,04,26,16,19,12.00
2014,04,26,16,20,12.00
2014,04,26,16,21,12.00
2014,04,26,16,22,12.00
2014,04,26,16,23,12.00
2014,04,26,16,24,12.00
2014,04,26,16,25,12.00
2014,04,26,16,26,11.90
2014,04,26,16,27,11.90
2014,04,26,16,28,11.80
2014,04,26,16,29,11.80
2014,04,26,16,30,11.80
2014,04,26,16,31,11.80
2014,04,26,16,32,11.80
2014,04,26,16,33,11.80
2014,04,26,16,34,11.80
2014,04,26,16,35,11.80
2014,04,26,16,36,11.80
2014,04,26,16,37,11.90
2014,04,26,16,38,11.90
2014,04,26,16,39,11.90
2014,04,26,16,40,11.90
2014,04,26,16,41,12.00
2014,04,26,16,42,12.00
2014,04,26,16,43,12.10
2014,04,26,16,44,12.10
2014,04,26,16,45,12.10
2014,04,26,16,46,12.10
2014,04,26,16,47,12.00
2014,04,26,16,48,11.90
2014,04,26,16,49,11.90
2014,04,26,16,50,11.90
2014,04,26,16,51,11.90
2014,04,26,16,52,11.90
2014,04,26,16,53,12.00
2014,04,26,16,54,12.00
2014,04,26,16,55,12.00
2014,04,26,16,56,12.00
2014,04,26,16,57,12.10
2014,04,26,16,58,12.10
2014,04,26,16,59,12.00
2014,04,26,17,00,12.00
2014,04,26,17,01,12.00
2014,04,26,17,02,11.90
2014,04,26,17,03,11.90
2014,04,26,17,04,11.80
2014,04,26,17,05,11.80
2014,04,26,17,06,11.80
2014,04,26,17,07,11.80
2014,04,26,17,08,11.80
2014,04,26,17,09,11.90
2014,04,26,17,10,11.90
2014,04,26,17,11,11.90
2014,04,26,17,12,11.90
2014,04,26,17,13,11.90
2014,04,26,17,14,11.90
2014,04,26,17,15,11.90
2014,04,26,17,16,11.90
2014,04,26,17,17,11.90
2014,04,26,17,18,11.90
2014,04,26,17,19,11.90
2014,04,26,17,20,11.90
2014,04,26,17,21,11.90
2014,04,26,17,22,11.90
2014,04,26,17,23,11.90
2014,04,26,17,24,11.80
2014,04,26,17,25,11.70
2014,04,26,17,26,11.70
2014,04,26,17,27,11.70
2014,04,26,17,28,11.70
2014,04,26,17,29,11.70
2014,04,26,17,30,11.60
2014,04,26,17,31,11.60
2014,04,26,17,32,11.60
2014,04,26,17,33,11.60
2014,04,26,17,34,11.60
2014,04,26,17,35,11.60
2014,04,26,17,36,11.60
2014,04,26,17,37,11.70
2014,04,26,17,38,11.70
2014,04,26,17,39,11.70
2014,04,26,17,40,11.70
2014,04,26,17,41,11.70
2014,04,26,17,42,11.70
2014,04,26,17,43,11.70
2014,04,26,17,44,11.70
2014,04,26,17,45,11.70
2014,04,26,17,46,11.70
2014,04,26,17,47,11.70
2014,04,26,17,48,11.70
2014,04,26,17,49,11.70
2014,04,26,17,50,11.80
2014,04,26,17,51,11.70
2014,04,26,17,52,11.70
2014,04,26,17,53,11.60
2014,04,26,17,54,11.60
2014,04,26,17,55,11.60